Weather History for KMTO - January, 2014

Change the Weather History Date:

Monday, January 20, 2014

  Actual Average Record
Temperature  
Mean Temperature 36 °F 27 °F  
Max Temperature 43 °F 35 °F 59 °F (1951)
Min Temperature 28 °F 19 °F -23 °F (1985)
Degree Days  
Heating Degree Days 29 38  
Month to date heating degree days 829 757  
Since 1 July heating degree days 3070 2860  
Cooling Degree Days 0 0  
Month to date cooling degree days 0 0  
Year to date cooling degree days 0 0  
Moisture  
Dew Point 28 °F    
Average Humidity 76    
Maximum Humidity 92    
Minimum Humidity 59    
Precipitation  
Precipitation T in 0.05 in 1.07 in (1974)
Month to date precipitation 0.28 1.61  
Year to date precipitation 0.28 1.61  
Sea Level Pressure  
Sea Level Pressure 29.88 in    
Wind  
Wind Speed 7 mph (WNW)    
Max Wind Speed 16 mph    
Max Gust Speed 21 mph    
Visibility 9 miles    
Events Snow    
T = Trace of Precipitation, MM = Missing Value Source: NWS Daily Summary

Daily Weather History Graph

Daily Weather History Graph

Search for Another Location

Airport or City:

Trip Planner

Search our weather history database for the weather conditions in past years. The results will help you decide how hot, cold, wet, or windy it might be!

Date:

Astronomy

Jan. 20, 2014 Rise Set
Actual Time 7:09 AM CST 4:59 PM CST
Civil Twilight 6:40 AM CST 5:28 PM CST
Nautical Twilight 6:07 AM CST 6:01 PM CST
Astronomical Twilight 5:35 AM CST 6:33 PM CST
Moon 9:32 PM CST (1/20) 9:10 AM CST (1/20)
Length of Visible Light 10h 48m
Length of Day
9h 50m
Waning Gibbous, 82% of the Moon is Illuminated
Jan 20
Waning Gibbous
Jan 23
Last Quarter
Jan 30
New
Feb 6
First Quarter
Feb 14
Full

Hourly Weather History & Observations

Time (CST) Temp. Windchill Dew Point Humidity Pressure Visibility Wind Dir Wind Speed Gust Speed Precip Events Conditions
12:53 AM 37.9 °F 30.0 °F 24.1 °F 57% 29.72 in 10.0 mi SW 12.7 mph 19.6 mph N/A   Clear
1:53 AM 37.9 °F 30.9 °F 24.1 °F 57% 29.74 in 10.0 mi SW 10.4 mph 19.6 mph N/A   Clear
2:53 AM 37.0 °F 31.0 °F 24.1 °F 59% 29.77 in 10.0 mi WSW 8.1 mph - N/A   Clear
3:53 AM 34.0 °F 26.0 °F 27.0 °F 75% 29.80 in 10.0 mi WNW 10.4 mph - N/A   Clear
4:53 AM 30.9 °F 23.5 °F 26.1 °F 82% 29.82 in 10.0 mi WNW 8.1 mph - N/A   Clear
5:53 AM 28.9 °F 22.8 °F 25.0 °F 85% 29.86 in 10.0 mi WNW 5.8 mph - N/A   Clear
6:18 AM 28.0 °F 21.7 °F 24.1 °F 85% 29.85 in 10.0 mi WNW 5.8 mph - N/A   Mostly Cloudy
6:53 AM 30.9 °F 26.2 °F 27.0 °F 85% 29.88 in 10.0 mi West 4.6 mph - N/A   Mostly Cloudy
7:08 AM 30.0 °F 23.2 °F 27.0 °F 88% 29.87 in 10.0 mi West 6.9 mph - N/A   Scattered Clouds
7:53 AM 30.9 °F 26.2 °F 27.0 °F 85% 29.90 in 10.0 mi WSW 4.6 mph - N/A   Clear
8:53 AM 34.0 °F 29.8 °F 28.9 °F 82% 29.90 in 10.0 mi West 4.6 mph - N/A   Clear
9:53 AM 37.9 °F 32.7 °F 30.9 °F 76% 29.93 in 10.0 mi West 6.9 mph - N/A   Clear
10:53 AM 39.0 °F 32.3 °F 30.0 °F 70% 29.93 in 10.0 mi WNW 10.4 mph - N/A   Clear
11:53 AM 39.9 °F 33.9 °F 30.9 °F 70% 29.91 in 10.0 mi WNW 9.2 mph - N/A   Clear
12:53 PM 42.1 °F 37.7 °F 32.0 °F 67% 29.90 in 10.0 mi WNW 6.9 mph - N/A   Partly Cloudy
1:40 PM 42.1 °F 37.1 °F 32.0 °F 67% 29.89 in 10.0 mi West 8.1 mph - N/A   Mostly Cloudy
1:53 PM 42.1 °F 36.1 °F 32.0 °F 67% 29.90 in 10.0 mi West 10.4 mph - N/A   Mostly Cloudy
2:53 PM 41.0 °F 35.8 °F 32.0 °F 70% 29.91 in 10.0 mi WNW 8.1 mph - N/A   Overcast
3:53 PM 39.0 °F 32.3 °F 32.0 °F 76% 29.93 in 10.0 mi NW 10.4 mph - N/A   Mostly Cloudy
4:14 PM 37.0 °F 29.8 °F 30.9 °F 79% 29.92 in 10.0 mi NW 10.4 mph - N/A   Partly Cloudy
4:53 PM 36.0 °F 29.6 °F 30.0 °F 79% 29.94 in 10.0 mi NNW 8.1 mph - N/A   Overcast
5:53 PM 34.0 °F 28.0 °F 30.0 °F 85% 29.94 in 10.0 mi North 6.9 mph - N/A   Overcast
6:53 PM 33.1 °F 27.7 °F 28.9 °F 85% 29.94 in 10.0 mi North 5.8 mph - N/A   Clear
7:53 PM 30.9 °F - 28.0 °F 89% 29.94 in 9.0 mi Calm Calm - N/A   Partly Cloudy
8:53 PM 30.9 °F - 28.0 °F 89% 29.92 in 8.0 mi Calm Calm - N/A   Overcast
9:53 PM 30.9 °F - 28.0 °F 89% 29.91 in 8.0 mi Calm Calm - N/A   Overcast
10:11 PM 30.9 °F - 28.0 °F 89% 29.90 in 7.0 mi Calm Calm - N/A   Overcast
10:53 PM 32.0 °F - 28.9 °F 88% 29.90 in 8.0 mi Calm Calm - N/A   Overcast
11:53 PM 30.9 °F 24.3 °F 28.0 °F 89% 29.88 in 3.0 mi ENE 6.9 mph - 0.00 in Snow Light Snow